Location: *
(51.5000°N, 0.1100°W)
Time: 17:21:59
(UTC+00:00)

CZ-2C R/B - Pass Details

Date: 25 May 2024
Orbit: 665 x 780 km, 98.4° (Epoch: 16 June)

Event Time Altitude Azimuth Distance (km) Brightness Sun altitude
Rises 03:09:47 0° 20° (NNE) 3,132 7.0 -6.2°
Reaches altitude 10° 03:12:14 10° 28° (NNE) 2,188 6.4 -5.9°
Maximum altitude 03:16:43 39° 97° (E) 1,028 3.6 -5.4°
Drops below altitude 10° 03:21:03 10° 167° (SSE) 2,114 4.5 -4.9°
Sets 03:23:22 0° 175° (S) 3,013 5.2 -4.6°
